Temperature
17 17 18 18 18 18 18 18 18 18 18 18 18 18 18 18 18 18 18 18 18 18 18 18 18 18 18 18 18 18 18 18 18 18 18 18 18 18 18 18 17 17 18
17 17 18 18 18 18 18 18 18 18 18 18 18 18 18 18 18 18 18 18 18 17 18 18 18 18 18 18 18 17 17 17 18 18 18 17 18 18 18 18 17 17 18
17 17 18 18 18 18 18 18 18 18 18 18 18 18 18 18 18 18 18 17 17 17 17 17 17 18 18 18 17 17 17 17 17 17 17 17 17 18 17 17 17 17 17
17 17 17 18 18 18 18 18 18 18 18 18 18 18 18 17 18 18 17 17 17 17 17 17 17 17 17 17 17 17 17 17 17 17 17 17 17 17 17 17 17 17 17
17 17 17 18 18 18 18 18 18 18 18 18 17 17 17 17 17 17 17 17 17 17 17 17 17 17 17 17 17 17 17 17 17 17 16 16 17 17 17 17 17 17 17
17 17 17 18 18 17 17 17 17 17 17 17 17 17 17 17 17 17 17 17 17 17 17 17 17 17 17 17 17 17 17 17 16 16 16 16 16 17 17 17 17 17 17
17 17 17 17 17 17 17 17 17 17 17 17 17 17 17 17 17 17 17 17 17 17 17 17 17 17 17 17 17 17 17 17 16 16 16 16 16 17 17 17 17 17 17
17 17 17 18 17 17 17 17 17 17 17 17 17 17 17 17 17 17 17 17 17 17 17 17 17 17 16 17 17 17 17 16 16 16 16 16 16 16 16 16 17 17 17
17 17 17 17 17 17 17 17 17 17 17 17 17 17 17 17 17 17 17 17 17 17 17 17 17 16 16 16 16 16 16 16 16 16 16 16 16 16 16 16 16 16 16
17 17 17 17 17 17 17 17 17 17 17 17 17 17 17 17 17 17 16 17 16 16 16 16 16 16 16 16 16 16 16 16 15 16 16 16 16 16 16 16 16 16 16
17 17 17 17 17 17 17 17 17 17 17 17 17 17 16 16 16 16 16 16 16 16 16 16 16 16 16 16 16 16 16 16 15 15 15 16 16 16 16 15 16 16 16
17 17 17 17 17 17 17 17 17 16 16 16 16 16 16 16 16 16 16 16 16 16 16 16 16 16 16 16 16 16 16 15 15 15 15 15 15 15 15 15 15 15 15
17 17 17 17 17 17 17 17 17 16 16 16 16 16 16 16 16 16 16 16 16 16 16 16 16 16 16 15 15 15 15 15 15 15 15 15 15 15 15 15 15 15 15
17 17 17 17 17 17 17 17 17 17 16 16 16 16 16 16 16 16 16 16 16 16 16 15 15 15 15 15 15 15 15 15 15 15 15 15 15 15 15 15 15 15 15
17 17 17 17 17 17 17 17 17 16 16 16 16 16 16 16 16 16 16 16 16 16 15 15 15 15 15 15 15 15 15 15 15 15 15 15 15 15 15 15 15 15 15
18 18 17 17 17 17 17 17 17 16 16 16 16 16 16 16 16 16 16 15 15 15 15 15 15 15 15 15 15 15 15 15 15 14 14 14 15 15 14 14 14 14 14
18 18 17 17 17 17 17 17 16 16 16 16 16 16 16 16 16 16 16 16 15 15 15 15 15 15 15 15 15 15 15 14 14 14 14 14 14 14 14 14 14 14 14
18 18 17 17 17 17 17 16 16 16 16 16 16 16 16 16 16 16 15 15 15 15 15 15 15 15 15 14 14 14 14 14 14 14 14 14 14 14 14 14 14 14 14
18 17 17 17 17 17 17 16 16 16 16 16 16 16 16 16 16 15 15 15 15 15 15 15 15 15 14 14 14 14 14 14 14 14 14 14 14 14 14 14 14 14 14
17 17 17 17 17 17 16 16 16 16 16 16 16 16 16 15 15 15 15 15 15 15 15 15 15 14 14 14 14 14 14 14 14 14 14 14 14 13 13 13 13 13 14
17 17 17 17 16 16 16 16 16 16 16 16 16 15 15 15 15 15 15 15 15 15 15 15 14 14 14 14 14 14 14 14 14 14 13 13 13 13 13 13 13 13 13
17 17 17 17 16 16 16 16 16 16 15 16 15 15 15 15 15 15 15 15 15 15 14 14 14 14 14 14 14 14 14 14 13 13 13 13 13 13 13 13 13 13 13
17 17 17 17 16 16 16 16 16 15 15 15 15 15 15 15 15 15 15 15 15 15 14 14 14 14 14 14 14 14 15 15 14 13 13 13 13 13 13 13 12 12 12
17 17 17 16 16 16 16 16 16 16 16 15 15 15 15 15 15 15 15 15 15 14 14 14 14 14 14 14 14 14 14 14 14 14 13 13 13 12 12 12 12 12 12
17 17 16 16 16 16 16 16 16 16 15 15 15 15 15 15 15 15 15 15 14 14 14 14 14 14 14 14 14 14 14 14 14 14 13 13 12 12 12 12 12 12 12
17 16 16 16 16 16 16 16 16 15 15 15 15 15 15 15 15 15 15 15 14 14 14 14 14 14 14 14 14 14 14 14 14 14 13 13 12 12 12 12 12 12 11
Wind_Speed
3 4 6 4 5 6 7 7 7 7 8 8 8 8 8 8 9 9 10 10 9 9 9 10 10 10 10 10 10 9 9 10 10 9 9 10 9 8 7 5 3 6 8
4 5 6 4 5 6 7 7 7 8 8 8 8 8 8 9 9 9 10 10 9 10 9 9 9 9 9 9 9 9 9 9 9 8 7 9 9 9 8 7 7 7 7
4 5 6 5 5 6 7 7 7 8 8 8 8 8 8 9 9 9 9 9 9 9 9 9 9 9 9 9 9 9 9 8 8 5 2 6 9 9 8 8 8 8 7
5 5 6 6 6 6 7 7 7 8 7 8 8 8 8 8 9 9 9 9 9 9 9 9 9 9 9 10 9 9 9 8 6 1 4 7 8 10 9 8 8 8 7
5 5 8 6 6 6 7 7 7 7 7 8 8 8 8 8 9 9 9 9 9 9 9 9 9 10 10 10 10 10 9 8 4 3 7 7 8 9 9 8 8 7 7
5 5 7 6 6 6 7 6 6 7 7 8 8 8 8 8 8 9 9 9 9 9 9 9 10 10 10 10 10 9 8 5 2 6 6 7 8 9 8 8 8 7 7
5 5 7 6 6 6 6 5 6 7 8 8 8 8 8 8 8 9 9 9 9 9 9 9 10 9 9 9 9 9 7 3 5 6 6 7 8 8 8 8 8 8 8
5 5 6 7 6 6 6 6 7 7 7 7 7 8 7 7 8 9 9 9 9 9 9 9 10 9 9 9 9 8 6 4 6 6 6 7 9 8 8 8 8 8 8
5 5 5 5 6 6 6 6 6 7 7 7 7 7 7 7 8 9 9 9 9 9 9 10 10 10 10 10 9 8 7 5 5 6 7 8 9 8 8 8 8 8 8
5 4 4 4 4 5 6 6 6 6 6 7 7 7 6 7 7 7 8 10 9 9 10 10 10 10 10 10 10 8 4 1 7 6 7 9 10 9 9 8 8 8 8
4 3 3 4 4 4 5 6 5 6 5 5 6 6 4 4 5 6 9 9 8 9 9 10 10 9 8 9 8 5 2 6 7 7 8 10 9 8 8 8 8 8 8
4 3 3 3 3 3 3 4 3 4 4 4 4 4 4 4 4 5 9 8 8 8 9 9 7 6 3 6 6 3 5 7 7 7 9 10 9 9 9 9 9 9 9
3 3 2 2 2 3 3 2 3 3 3 3 4 4 3 4 3 4 5 6 6 5 6 6 4 5 6 6 5 6 7 7 7 7 10 10 9 10 10 10 10 9 10
3 3 2 2 2 2 3 2 2 2 2 2 3 3 3 2 2 3 3 4 3 4 4 4 4 6 6 6 6 6 7 7 7 7 10 12 10 11 11 11 11 10 10
3 3 2 2 2 2 2 1 2 2 2 3 2 2 2 2 2 3 3 3 3 4 4 4 4 5 5 6 6 7 7 7 7 7 9 12 12 11 11 11 11 10 10
3 3 2 3 3 3 2 2 2 2 2 1 2 2 2 2 2 2 3 3 3 3 4 4 5 4 4 5 5 6 6 6 7 7 7 9 12 11 11 11 10 10 10
3 3 2 2 3 3 3 2 2 2 2 2 1 1 2 2 2 2 2 3 4 4 5 4 5 4 4 4 5 5 5 6 6 6 6 6 8 11 12 12 11 10 10
3 3 3 2 2 3 3 2 2 2 1 1 1 1 1 2 3 3 2 3 4 4 4 4 3 3 4 4 4 4 4 5 5 6 6 6 6 7 10 12 12 12 11
3 3 3 3 2 3 3 2 2 2 1 1 1 1 1 3 3 3 2 3 4 4 4 3 3 3 4 4 4 4 4 4 4 5 6 6 7 6 7 10 11 12 12
4 3 3 3 3 3 3 2 2 2 1 1 1 1 1 2 3 3 3 3 4 3 3 4 4 3 3 3 4 4 4 4 4 4 5 5 6 7 7 6 6 8 11
4 4 3 3 3 3 2 2 2 2 1 1 1 1 2 2 3 4 3 4 3 3 3 4 4 4 4 3 3 3 4 4 4 4 4 4 5 6 6 6 5 5 7
4 4 3 3 3 3 2 2 2 1 1 1 1 1 1 2 3 4 4 4 4 4 4 4 4 3 3 1 1 1 2 3 3 3 3 3 4 5 5 5 5 5 5
4 4 3 3 3 3 3 3 3 2 2 2 2 1 1 2 3 4 4 4 4 4 4 4 4 4 3 2 0 1 0 1 1 2 3 3 3 3 3 5 5 5 5
4 4 4 3 3 3 4 3 3 2 2 1 1 2 2 2 3 3 4 4 4 4 4 5 4 3 3 2 1 1 1 1 1 1 1 2 3 3 3 3 4 4 4
4 4 3 3 3 3 3 3 3 2 2 2 2 2 2 2 2 3 4 4 4 4 4 4 3 3 3 2 1 1 1 1 2 1 1 1 2 2 2 3 3 4 4
4 4 4 4 4 3 4 4 3 3 3 3 3 3 2 2 2 3 3 3 4 4 4 4 4 4 3 2 2 2 2 2 2 1 2 2 1 1 2 2 2 3 3
Wind_Direction
91 89 89 100 105 103 98 100 103 100 98 96 94 97 95 92 90 88 84 81 79 80 81 80 78 77 76 77 77 76 78 80 78 76 78 78 76 75 76 78 92 99 89
96 96 99 105 109 109 101 101 106 105 103 100 98 94 92 91 90 86 84 81 79 80 83 82 80 78 77 78 79 77 78 78 77 76 85 92 78 69 70 66 49 73 88
102 102 114 106 108 109 104 105 107 107 104 102 101 97 92 90 89 89 86 81 78 80 80 81 82 81 81 80 80 79 78 81 80 78 105 89 85 72 68 70 71 77 85
102 97 93 100 103 106 106 106 108 108 107 105 102 100 96 95 92 92 89 82 78 78 78 77 81 83 83 82 80 78 77 79 77 43 76 70 74 74 70 70 73 79 83
104 98 93 93 95 98 101 104 108 113 112 109 104 99 96 95 95 93 90 84 80 78 79 79 81 82 82 81 79 78 78 80 82 66 69 68 69 69 65 65 67 77 80
102 97 100 94 97 100 98 99 99 107 109 108 105 98 94 92 92 89 86 81 80 80 81 82 82 82 82 81 79 76 76 74 90 71 70 70 70 70 67 66 64 72 75
102 96 102 95 106 109 104 98 102 102 102 100 98 96 94 93 90 88 86 85 83 83 84 85 83 82 82 81 79 76 73 49 68 73 70 69 67 66 70 71 67 67 68
98 96 102 106 104 101 100 97 99 99 99 96 93 92 92 87 85 86 88 86 85 87 89 87 84 84 84 83 80 76 62 11 77 70 68 70 67 65 68 68 67 65 66
103 99 94 106 120 121 103 92 95 97 99 98 97 96 93 90 88 88 90 88 86 87 88 87 83 82 82 82 79 75 65 25 55 63 68 70 72 69 69 67 65 66 67
111 106 105 99 98 107 111 101 96 96 98 97 99 96 103 112 107 103 102 91 86 86 86 88 86 83 83 80 76 74 70 41 58 63 65 72 73 69 69 67 66 67 67
115 107 105 108 103 96 99 109 116 114 110 120 114 113 135 118 107 112 86 90 89 87 87 88 89 89 95 93 81 75 70 61 64 59 64 66 67 70 70 68 68 68 68
133 123 118 114 122 115 106 110 110 115 118 106 100 113 111 99 98 98 102 100 100 101 103 98 106 122 116 92 97 106 67 65 59 62 67 67 65 70 70 69 67 67 67
140 134 134 135 130 133 131 117 112 112 113 102 96 105 110 108 116 114 115 120 115 120 106 113 119 84 77 74 65 64 60 58 57 59 63 66 68 70 69 69 67 68 67
157 151 149 152 146 144 142 136 139 131 125 116 106 94 101 99 100 97 103 104 115 105 99 97 86 82 76 74 70 68 66 63 64 62 63 63 68 69 68 67 66 66 67
164 166 164 169 158 146 138 168 164 136 125 120 115 113 116 112 110 112 113 107 105 106 106 98 94 86 77 70 65 62 62 62 63 65 69 67 65 65 67 68 66 63 65
172 171 173 178 175 173 165 176 147 139 152 134 131 147 138 128 130 127 114 109 112 108 103 108 102 92 83 75 67 63 59 59 58 63 66 75 72 65 63 65 66 67 67
179 169 160 178 182 177 176 169 152 165 160 141 140 159 146 143 146 134 126 121 124 121 116 104 99 92 89 86 78 68 61 54 56 59 62 66 74 75 66 61 60 63 65
194 179 162 179 190 172 173 172 162 165 158 147 142 145 165 161 151 146 136 124 126 125 120 108 103 102 91 82 75 67 67 64 59 60 67 72 66 68 73 65 58 57 57
195 184 174 175 185 170 166 161 168 159 150 143 134 148 172 165 170 157 140 139 134 130 121 114 102 90 86 78 74 68 62 63 62 64 66 67 69 70 72 77 68 56 51
184 180 169 168 185 169 168 167 155 153 172 138 114 132 152 175 166 151 153 149 137 135 129 123 115 103 88 84 77 70 66 69 70 63 61 67 66 66 64 65 72 71 59
179 183 175 183 182 175 168 173 167 166 174 153 139 132 159 177 170 161 167 156 152 148 146 140 126 118 110 101 96 89 87 73 65 71 63 65 68 64 63 64 60 60 70
178 181 179 183 176 166 160 166 160 154 156 135 153 143 155 168 174 177 178 170 165 158 160 151 144 146 138 152 112 123 119 116 74 67 74 68 63 70 60 56 60 61 53
181 179 182 181 173 163 160 154 147 146 181 168 161 150 153 164 169 178 180 175 173 174 171 171 172 173 174 172 260 341 357 74 86 87 67 70 61 58 62 52 49 55 53
178 174 179 176 173 168 172 171 169 178 184 171 156 144 153 155 167 177 175 174 176 182 181 187 189 188 189 201 218 301 323 122 233 144 107 84 69 61 56 55 48 52 55
157 159 165 165 171 172 176 172 191 195 187 176 177 160 155 140 145 163 174 180 183 184 188 189 191 207 211 232 247 231 179 200 233 209 173 137 101 75 67 59 55 54 55
146 149 159 170 166 170 180 186 195 192 193 187 186 179 175 158 153 163 177 187 192 189 191 193 202 211 228 236 253 242 219 226 215 208 202 187 139 92 81 71 57 61 65
Height
1540 1539 1538 1539 1539 1539 1539 1539 1539 1539 1539 1539 1539 1539 1539 1539 1539 1539 1539 1538 1538 1538 1538 1538 1538 1537 1537 1537 1537 1537 1537 1536 1536 1536 1536 1535 1535 1535 1535 1535 1535 1536 1534
1540 1540 1539 1540 1540 1540 1540 1540 1540 1540 1540 1540 1540 1540 1541 1541 1540 1540 1540 1540 1540 1540 1539 1539 1539 1538 1538 1538 1538 1538 1538 1537 1537 1537 1537 1537 1537 1536 1536 1536 1536 1536 1535
1541 1541 1540 1541 1541 1541 1541 1541 1541 1541 1541 1541 1541 1541 1542 1542 1542 1542 1541 1541 1541 1541 1541 1541 1540 1540 1540 1539 1539 1539 1539 1539 1539 1538 1539 1540 1538 1537 1537 1537 1537 1536 1536
1542 1542 1542 1541 1542 1542 1542 1542 1542 1542 1542 1542 1543 1543 1543 1543 1543 1543 1543 1543 1543 1543 1542 1542 1542 1541 1541 1541 1540 1540 1540 1540 1540 1540 1541 1541 1540 1538 1538 1538 1538 1537 1537
1543 1543 1542 1542 1542 1543 1543 1543 1543 1543 1544 1544 1544 1544 1544 1544 1544 1544 1544 1544 1544 1544 1544 1543 1543 1543 1542 1542 1542 1541 1541 1541 1540 1541 1541 1541 1540 1539 1539 1539 1538 1538 1538
1544 1544 1543 1543 1543 1543 1544 1544 1544 1544 1545 1545 1545 1545 1545 1545 1545 1545 1545 1545 1545 1545 1545 1545 1544 1544 1544 1544 1543 1543 1542 1542 1542 1542 1542 1541 1541 1540 1540 1539 1539 1539 1539
1545 1545 1545 1544 1544 1545 1545 1545 1545 1545 1546 1546 1546 1547 1547 1547 1547 1547 1547 1546 1546 1546 1546 1546 1546 1545 1545 1545 1544 1544 1543 1543 1544 1543 1543 1542 1541 1541 1540 1540 1540 1539 1539
1546 1546 1546 1545 1545 1546 1546 1546 1546 1546 1547 1547 1548 1548 1548 1548 1548 1548 1548 1548 1548 1548 1548 1547 1547 1547 1546 1546 1546 1545 1544 1544 1545 1545 1544 1543 1542 1541 1541 1541 1540 1540 1540
1547 1547 1547 1547 1547 1547 1547 1547 1547 1548 1548 1548 1549 1549 1549 1550 1549 1549 1550 1550 1549 1549 1549 1549 1548 1548 1548 1547 1547 1546 1546 1545 1546 1546 1545 1544 1543 1542 1542 1541 1541 1541 1540
1548 1548 1548 1548 1549 1549 1549 1548 1549 1549 1550 1550 1550 1551 1551 1551 1551 1551 1551 1551 1551 1550 1550 1550 1550 1549 1549 1548 1548 1547 1547 1547 1547 1547 1546 1545 1544 1543 1542 1542 1542 1541 1541
1549 1549 1549 1549 1550 1550 1550 1550 1550 1550 1551 1551 1551 1552 1552 1553 1553 1553 1553 1552 1552 1552 1551 1551 1551 1551 1550 1550 1549 1549 1549 1549 1548 1548 1547 1546 1545 1544 1543 1543 1542 1542 1541
1549 1549 1550 1550 1550 1551 1551 1551 1552 1552 1552 1553 1553 1553 1553 1554 1554 1553 1553 1553 1553 1553 1553 1552 1552 1552 1552 1552 1551 1551 1551 1550 1550 1549 1548 1546 1546 1545 1544 1544 1543 1543 1542
1550 1550 1550 1551 1551 1551 1551 1552 1552 1553 1553 1553 1554 1554 1554 1554 1554 1555 1555 1555 1555 1554 1554 1554 1554 1554 1554 1553 1553 1553 1552 1551 1551 1550 1549 1547 1547 1546 1545 1545 1544 1544 1543
1550 1550 1551 1551 1551 1551 1552 1552 1552 1553 1554 1554 1554 1555 1555 1555 1555 1555 1555 1555 1555 1555 1555 1555 1555 1555 1555 1555 1554 1554 1553 1552 1552 1551 1549 1548 1548 1547 1547 1546 1545 1545 1544
1550 1550 1551 1551 1551 1551 1552 1552 1553 1553 1554 1554 1554 1554 1555 1555 1555 1555 1555 1555 1556 1556 1555 1555 1555 1555 1555 1555 1555 1554 1554 1553 1553 1552 1551 1549 1549 1548 1548 1547 1547 1546 1546
1550 1550 1550 1550 1551 1551 1552 1552 1553 1553 1553 1554 1554 1555 1555 1555 1555 1555 1556 1555 1556 1556 1556 1556 1556 1556 1556 1555 1555 1555 1554 1554 1554 1553 1552 1551 1550 1549 1549 1549 1548 1547 1547
1549 1549 1550 1550 1550 1551 1551 1552 1552 1553 1554 1554 1554 1555 1555 1555 1555 1555 1556 1555 1556 1556 1556 1556 1556 1556 1556 1556 1556 1555 1555 1554 1554 1554 1553 1552 1552 1551 1550 1549 1549 1549 1548
1548 1549 1549 1549 1549 1550 1550 1551 1552 1553 1553 1553 1554 1554 1555 1555 1555 1555 1556 1556 1556 1556 1557 1557 1557 1557 1557 1557 1556 1556 1556 1555 1555 1554 1554 1554 1553 1553 1552 1551 1550 1550 1549
1547 1547 1548 1548 1549 1549 1550 1550 1551 1552 1552 1553 1553 1553 1554 1555 1555 1556 1556 1556 1557 1557 1557 1557 1557 1557 1557 1557 1557 1556 1556 1556 1555 1555 1555 1555 1554 1553 1553 1552 1551 1550 1550
1545 1546 1546 1547 1547 1548 1548 1549 1550 1551 1552 1552 1552 1552 1553 1554 1555 1555 1555 1556 1556 1557 1557 1557 1557 1558 1558 1557 1557 1557 1557 1557 1556 1556 1556 1555 1555 1555 1554 1554 1553 1552 1551
1544 1545 1545 1546 1546 1547 1547 1548 1549 1550 1551 1551 1551 1552 1552 1553 1554 1554 1555 1556 1556 1557 1557 1558 1558 1558 1558 1558 1558 1558 1558 1558 1557 1557 1556 1556 1556 1555 1555 1554 1554 1553 1552
1543 1544 1545 1545 1545 1546 1546 1547 1548 1549 1550 1550 1550 1551 1552 1552 1553 1554 1554 1555 1556 1556 1557 1558 1558 1558 1558 1559 1559 1559 1559 1560 1558 1558 1557 1557 1557 1556 1556 1555 1555 1554 1553
1542 1542 1543 1544 1545 1545 1546 1547 1547 1548 1549 1550 1550 1550 1550 1551 1552 1552 1554 1554 1555 1556 1557 1557 1557 1558 1558 1559 1559 1560 1559 1559 1559 1559 1558 1557 1557 1556 1556 1555 1555 1554 1554
1540 1541 1542 1543 1544 1544 1545 1545 1547 1547 1548 1549 1549 1549 1550 1550 1551 1551 1553 1553 1554 1555 1556 1557 1557 1558 1558 1558 1558 1558 1559 1558 1559 1559 1559 1558 1557 1557 1556 1555 1555 1554 1554
1539 1539 1540 1542 1542 1543 1544 1545 1545 1546 1547 1548 1549 1549 1549 1549 1550 1551 1552 1553 1553 1554 1555 1556 1556 1557 1558 1558 1558 1558 1557 1557 1558 1558 1558 1558 1558 1557 1556 1555 1554 1554 1553
1537 1538 1539 1540 1541 1542 1543 1544 1545 1545 1546 1547 1547 1548 1548 1548 1549 1550 1550 1551 1552 1553 1554 1555 1555 1556 1557 1557 1557 1557 1557 1557 1557 1557 1557 1557 1557 1557 1556 1555 1554 1553 1553